Regional Weather Roundup
Issued by NWS

Home | Current Version | Previous Version | Text Only | Print | Product List | Glossary On
Versions: 1 2 3 4 5 6 7 8 9 10 11 12 13 14 15 16 17 18 19 20 21 22 23 24 25 26 27 28 29 30 31 32 33 34 35 36 37 38 39 40 41 42 43 44 45 46 47 48 49 50
000
ASUS43 KBIS 212220
RWRND

NORTH DAKOTA REGIONAL WEATHER ROUNDUP
NATIONAL WEATHER SERVICE BISMARCK ND
500 PM CDT SUN SEP 21 2014

NOTE: "FAIR" INDICATES FEW OR NO CLOUDS BELOW 12,000 FEET WITH NO
SIGNIFICANT WEATHER AND/OR OBSTRUCTIONS TO VISIBILITY.


NDZ001>003-009>011-017-212300-
NORTHWEST NORTH DAKOTA

CITY           SKY/WX    TMP DP  RH WIND       PRES   REMARKS
WILLISTON      SUNNY     73  36  25 S7        30.21F
MINOT          SUNNY     72  38  29 VRB3      30.20F
MINOT AFB      SUNNY     72  40  31 W5        30.19F
$$

NDZ018>021-031>035-040>046-212300-
SOUTHWEST NORTH DAKOTA

CITY           SKY/WX    TMP DP  RH WIND       PRES   REMARKS
BISMARCK       SUNNY     75  40  28 NW6G16    30.23F
DICKINSON      SUNNY     72  36  26 CALM      30.23F
GARRISON         N/A     71  44  37 SW13      30.22F
HETTINGER ARPT SUNNY     71  34  25 W5        30.26F
$$

NDZ004>008-012>016-024-026-027-054-212300-
NORTHEAST NORTH DAKOTA

CITY           SKY/WX    TMP DP  RH WIND       PRES   REMARKS
GRAND FORKS    MOSUNNY   67  50  54 NW5       30.19F
GRND FRKS AFB  MOSUNNY   66  51  58 N5        30.20F
DEVILS LAKE    SUNNY     66  46  48 W7        30.18F
$$

NDZ022-023-025-028>030-036>039-047>053-212300-
SOUTHEAST NORTH DAKOTA

CITY           SKY/WX    TMP DP  RH WIND       PRES   REMARKS
FARGO          SUNNY     67  50  54 VRB3      30.21S
JAMESTOWN      SUNNY     67  48  50 W10       30.21F
$$




USA.gov is the U.S. government's official web portal to all federal, state and local government web resources and services.